category,name,time,total,current
水力(Hydro),德基#2,00:00:00,78,0
水力(Hydro),德基#2,00:10:00,78,0
水力(Hydro),德基#2,00:20:00,78,0
水力(Hydro),德基#2,00:30:00,78,0
水力(Hydro),德基#2,00:40:00,78,0
水力(Hydro),德基#2,00:50:00,78,0
水力(Hydro),德基#2,01:00:00,78,0
水力(Hydro),德基#2,01:10:00,78,0
水力(Hydro),德基#2,01:20:00,78,0
水力(Hydro),德基#2,01:30:00,78,0
水力(Hydro),德基#2,01:40:00,78,0
水力(Hydro),德基#2,01:50:00,78,0
水力(Hydro),德基#2,02:00:00,78,0
水力(Hydro),德基#2,02:10:00,78,0
水力(Hydro),德基#2,02:20:00,78,0
水力(Hydro),德基#2,02:30:00,78,0
水力(Hydro),德基#2,02:40:00,78,0
水力(Hydro),德基#2,02:50:00,78,0
水力(Hydro),德基#2,03:00:00,78,0
水力(Hydro),德基#2,03:10:00,78,0
水力(Hydro),德基#2,03:20:00,78,0
水力(Hydro),德基#2,03:30:00,78,0
水力(Hydro),德基#2,03:40:00,78,0
水力(Hydro),德基#2,03:50:00,78,0
水力(Hydro),德基#2,04:00:00,78,0
水力(Hydro),德基#2,04:10:00,78,0
水力(Hydro),德基#2,04:20:00,78,0
水力(Hydro),德基#2,04:30:00,78,0
水力(Hydro),德基#2,04:40:00,78,0
水力(Hydro),德基#2,04:50:00,78,0
水力(Hydro),德基#2,05:00:00,78,0
水力(Hydro),德基#2,05:10:00,78,0
水力(Hydro),德基#2,05:20:00,78,0
水力(Hydro),德基#2,05:30:00,78,0
水力(Hydro),德基#2,05:40:00,78,0
水力(Hydro),德基#2,05:50:00,78,0
水力(Hydro),德基#2,06:00:00,78,0
水力(Hydro),德基#2,06:10:00,78,0
水力(Hydro),德基#2,06:20:00,78,0
水力(Hydro),德基#2,06:30:00,78,0
水力(Hydro),德基#2,06:40:00,78,0
水力(Hydro),德基#2,06:50:00,78,0
水力(Hydro),德基#2,07:00:00,78,0
水力(Hydro),德基#2,07:10:00,78,0
水力(Hydro),德基#2,07:20:00,78,0
水力(Hydro),德基#2,07:30:00,78,0
水力(Hydro),德基#2,07:40:00,78,0
水力(Hydro),德基#2,07:50:00,78,0
水力(Hydro),德基#2,08:00:00,78,0
水力(Hydro),德基#2,08:10:00,78,0
水力(Hydro),德基#2,08:20:00,78,0
水力(Hydro),德基#2,08:30:00,78,0
水力(Hydro),德基#2,08:40:00,78,0
水力(Hydro),德基#2,08:50:00,78,0
水力(Hydro),德基#2,09:00:00,78,0
水力(Hydro),德基#2,09:10:00,78,29.6
水力(Hydro),德基#2,09:20:00,78,25.7
水力(Hydro),德基#2,09:30:00,78,30.4
水力(Hydro),德基#2,09:40:00,78,32.1
水力(Hydro),德基#2,09:50:00,78,76.9
水力(Hydro),德基#2,10:00:00,78,77.8
水力(Hydro),德基#2,10:10:00,78,77.8
水力(Hydro),德基#2,10:20:00,78,77.5
水力(Hydro),德基#2,10:30:00,78,63.2
水力(Hydro),德基#2,10:40:00,78,65.4
水力(Hydro),德基#2,10:50:00,78,75.1
水力(Hydro),德基#2,11:00:00,78,58
水力(Hydro),德基#2,11:10:00,78,54.8
水力(Hydro),德基#2,11:20:00,78,53.6
水力(Hydro),德基#2,11:30:00,78,52.2
水力(Hydro),德基#2,11:40:00,78,33.8
水力(Hydro),德基#2,11:50:00,78,25.4
水力(Hydro),德基#2,12:00:00,78,26.6
水力(Hydro),德基#2,12:10:00,78,27.6
水力(Hydro),德基#2,12:20:00,78,35
水力(Hydro),德基#2,12:30:00,78,34.4
水力(Hydro),德基#2,12:40:00,78,28.7
水力(Hydro),德基#2,12:50:00,78,32.8
水力(Hydro),德基#2,13:00:00,78,62.2
水力(Hydro),德基#2,13:10:00,78,50.5
水力(Hydro),德基#2,13:20:00,78,26.8
水力(Hydro),德基#2,13:30:00,78,30
水力(Hydro),德基#2,13:40:00,78,34.5
水力(Hydro),德基#2,13:50:00,78,28.2
水力(Hydro),德基#2,14:00:00,78,34.8
水力(Hydro),德基#2,14:10:00,78,27.7
水力(Hydro),德基#2,14:20:00,78,27.4
水力(Hydro),德基#2,14:30:00,78,26.7
水力(Hydro),德基#2,14:40:00,78,76.3
水力(Hydro),德基#2,14:50:00,78,76.2
水力(Hydro),德基#2,15:00:00,78,76.5
水力(Hydro),德基#2,15:10:00,78,76.2
水力(Hydro),德基#2,15:20:00,78,75.2
水力(Hydro),德基#2,15:30:00,78,75.9
水力(Hydro),德基#2,15:40:00,78,75.3
水力(Hydro),德基#2,15:50:00,78,76.2
水力(Hydro),德基#2,16:00:00,78,75.7
水力(Hydro),德基#2,16:10:00,78,75.8
水力(Hydro),德基#2,16:20:00,78,75.8
水力(Hydro),德基#2,16:30:00,78,76
水力(Hydro),德基#2,16:40:00,78,75.6
水力(Hydro),德基#2,16:50:00,78,76.3
水力(Hydro),德基#2,17:00:00,78,68.2
水力(Hydro),德基#2,17:10:00,78,76.5
水力(Hydro),德基#2,17:20:00,78,75.8
水力(Hydro),德基#2,17:30:00,78,77.4
水力(Hydro),德基#2,17:40:00,78,72.6
水力(Hydro),德基#2,17:50:00,78,66.2
水力(Hydro),德基#2,18:00:00,78,55.3
水力(Hydro),德基#2,18:10:00,78,19
水力(Hydro),德基#2,18:20:00,78,45.7
水力(Hydro),德基#2,18:30:00,78,42.8
水力(Hydro),德基#2,18:40:00,78,43.7
水力(Hydro),德基#2,18:50:00,78,45
水力(Hydro),德基#2,19:00:00,78,46.2
水力(Hydro),德基#2,19:10:00,78,61.8
水力(Hydro),德基#2,19:20:00,78,36
水力(Hydro),德基#2,19:30:00,78,34.8
水力(Hydro),德基#2,19:40:00,78,28.4
水力(Hydro),德基#2,19:50:00,78,35.9
水力(Hydro),德基#2,20:00:00,78,25.2
水力(Hydro),德基#2,20:10:00,78,47.7
水力(Hydro),德基#2,20:20:00,78,44.4
水力(Hydro),德基#2,20:30:00,78,41.9
水力(Hydro),德基#2,20:40:00,78,45.9
水力(Hydro),德基#2,20:50:00,78,45.6
水力(Hydro),德基#2,21:00:00,78,62.5
水力(Hydro),德基#2,21:10:00,78,66.7
水力(Hydro),德基#2,21:20:00,78,49.4
水力(Hydro),德基#2,21:30:00,78,75.9
水力(Hydro),德基#2,21:40:00,78,75.8
水力(Hydro),德基#2,21:50:00,78,58.6
水力(Hydro),德基#2,22:00:00,78,71.1
水力(Hydro),德基#2,22:10:00,78,71.4
水力(Hydro),德基#2,22:20:00,78,69.8
水力(Hydro),德基#2,22:30:00,78,43.9
水力(Hydro),德基#2,22:40:00,78,65.6
水力(Hydro),德基#2,22:50:00,78,56.2
水力(Hydro),德基#2,23:00:00,78,26.6
水力(Hydro),德基#2,23:10:00,78,55.2
水力(Hydro),德基#2,23:20:00,78,44.9
水力(Hydro),德基#2,23:30:00,78,38.3
水力(Hydro),德基#2,23:40:00,78,32
水力(Hydro),德基#2,23:50:00,78,25.4
